Showing default

STARS-AO, 43679

Orbit data source: Space-Track

STARS-AO, 43679 is a payload satellite owned by Shizuoka U (JP) in SSO that was launched on Mon, 29 Oct 2018 UTC via an H-IIA 202 launch vehicle from the Tanegashima Space Center (TNSTA). Payload-class satellites include a variety of spacecraft equipped with specific instruments for various scientific and technological missions. These include communications satellites like Starlink; space stations such as the ISS; scientific satellites like the Hubble; Earth observation satellites from companies like Planet Labs, Umbra, and HawkEye 360; GPS; miniature CubeSats for education and research; and military/defense satellites.

Loading next visibility...
Identifier
43679, 2018-084J
Orbit
SSO
Country
Flag of JPJP / JPN
Related business
Manufacturer
Shizuoka U
Mission
Operational Amateur Astronomy
Bus & Motor
CUBESAT 1U, Unknown motor
Mass
1.4 kg wet, 1.4 kg dry
Launch date (UTC)
2018-10-29 (7 years ago)
Launch vehicle
H-IIA 202
Launch site
Tanegashima Space Center (TNSTA)
Object type
Payload
Rocket body
Debris
Shape & HBR
Box, 0.1 m
Radar Cross Section
0.015 m², Small (<0.1 m²)

Expand to show TLE details & history
Last TLE update: 11 hours ago

TLE from 11 hours ago
0 STARS-AO
1 43679U 18084J   25286.82511424  .00010161  00000-0  57934-3 0  9990
2 43679  98.0707 120.9257 0001353 307.3147  52.7959 15.12994612380160
Epoch: 2025-10-13T19:48Z
TLE epoch observation values (Epoch: 2025-10-13T19:48:09.870Z)
Latitude
-0.00001°
Longitude
161.26224°
Altitude
529.57 km
Speed
7.598 km/s
True Right ascension
08h 03m 42s
True Declination
0° 00' 00"
Sunlit
Object was in daylight at epoch
Visualization orbit readout
Latitude
Unknown
Longitude
Unknown
Altitude
Unknown
Speed
Unknown
Apparent Right ascension
Unknown
Apparent Declination
Unknown
Sunlit
N/A
Visualization observer readout
Local Sidereal Time
01:32:05
Azimuth
Unknown
Elevation
Unknown
Doppler factor
Unknown
Orbital elements
Apogee altitude
525.012 km
Perigee altitude
523.144 km
Semi-major axis
6,902.215 km
Eccentricity
0.00014
Inclination
98.0707°
RAAN
120.9257°
Arg. of periapsis
307.3147°
True anomaly
52.80825°
Mean anomaly
52.7959°
Eccentric anomaly
52.80207°
Mean motion
3.78495 °/min
Orbital period
95.11 mins
BSTAR
0.00057934
Loading maneuver chart data...
Computing Atmospheric mass density...
Loading historical data...
Loading historical data...
Loading historical data...
Loading historical data...
Loading historical data...
Loading historical data...
Loading historical data...

Documentation

Showing up to 5 results
|